sat.trackr.live / text

‹ back to catalog

STARLINK-36294

NORAD 68531 · 2026-068Z

PAYLOAD ACTIVE UNKNOWN

§ Identity

Operator
Country
US
Launch date
2026-03-30
Launch site
AFETR
Launch vehicle
Mass (kg)
RCS (m²)

Purposes: comms

External: N2YO · Heavens-Above · Gunter

§ Orbital elements

Epoch: 2026-05-25T02:42:34.471872Z

Period
94.11 min
Inclination
53.1587°
Eccentricity
0.0001463
Mean motion
15.30189341 rev/d
Perigee alt
474.2 km
Apogee alt
476.2 km
Semi-major
6,853.4 km
B*
4.5249e-4
RAAN
134.4340°
Arg perigee
75.5998°
Mean anomaly
284.5165°
Rev number
864

§ Raw data

STARLINK-362941 68531U 26068Z   26145.11289898  .00013061  00000+0  45249-3 0  99962 68531  53.1587 134.4340 0001463  75.5998 284.5165 15.30189341  8644

JSON: /api/v1/satellites/68531 · /tle

For live sub-satellite position, see the globe view (requires WebGL).

§ Visibility from observer

Set your observer location to see the next 7 days of passes ≥ 10°. The values pass through the URL so the page stays shareable.

No JS? Fill the form by hand. The geolocation button needs JavaScript.